weather.gov     
National Weather Service

Regional Weather Roundup
NWS Homepage
This page is being discontinued on March 12, 2014.
The same data is available at this site. Please update your bookmarks.
Thank you, and we apologize for the inconvenience.
Please send an email to SR-SRH.Webmaster@noaa.gov with any concerns.


Current Version
Previous Version:    01  02  03  04  05  06  07  08  09  10  11  12  13  14  15  16  17  18  19  20  21  22  23  24  25  26  27  28  29  30  
   31  32  33  34  35  36  37  38  39  40  41  42  43  44  45  46  47  48  49  50  51  52  53  54  55  56  57  58  59  60  
[Printable]
331
ASUS44 KHUN 241124
RWRHUN

WEATHER ROUNDUP FOR THE TENNESSEE VALLEY
NATIONAL WEATHER SERVICE HUNTSVILLE AL
600 AM CDT THU APR 24 2014

ALZ001>004-241200-
NORTHWEST ALABAMA

CITY           SKY/WX    TMP DP  RH WIND       PRES   REMARKS
COURTLAND HCN    N/A     43 N/A N/A CALM        N/A
RUSSELLVILLE     N/A     39 N/A N/A MISG        N/A
SHOALS AIRPORT CLEAR     43  39  86 CALM      29.97R FOG
SHOALS TVA RES   N/A     41 N/A N/A MISG        N/A
$$

ALZ005>007-016-241200-
NORTH CENTRAL ALABAMA

CITY           SKY/WX    TMP DP  RH WIND       PRES   REMARKS
CULLMAN AG STN   N/A     41 N/A N/A CALM        N/A
DECATUR AP     CLEAR     45  41  86 E3        29.97F
HUNTSVILLE AP  PTCLDY    45  42  89 E6        29.97S
HUN NWS/UAH      N/A     47  39  74 NE2         N/A
MERIDIANVILLE  CLEAR     39  36  87 CALM      29.98R
VINEMONT AP    FAIR      51  38  61 E3        29.99S
$$

ALZ008>010-241200-
NORTHEAST ALABAMA

CITY           SKY/WX    TMP DP  RH WIND       PRES   REMARKS
ALBERTVILLE    CLEAR     43  43 100 CALM      29.98S
CROSSVILLE       N/A     46 N/A N/A CALM        N/A
FORT PAYNE     CLEAR     37  36  93 CALM      30.01R
SCOTTSBORO AP  CLEAR     41  39  93 CALM      30.02R
SCOTTSBORO HCN   N/A     41 N/A N/A MISG        N/A
VALLEY HEAD      N/A     39 N/A N/A MISG        N/A
$$

TNZ076-096-097-241200-
SOUTHEASTERN MIDDLE TENNESSEE

CITY           SKY/WX    TMP DP  RH WIND       PRES   REMARKS
FAYETTEVILLE   FAIR      44  35  70 E9        29.97S
TULLAHOMA      CLEAR     41  36  81 CALM      29.99S
WINCHESTER     CLEAR     48  34  57 SE8       29.99S
$$

...SURROUNDING SITES...

CITY           SKY/WX    TMP DP  RH WIND       PRES   REMARKS
ATLANTA        CLEAR     54  38  54 NE9       30.02R
ANNISTON       CLEAR     47  43  86 NE6       30.00R
BIRMINGHAM     CLEAR     53  42  66 N3        29.98S
CHATTANOOGA    PTCLDY    45  41  86 CALM      30.03R
CORINTH        FAIR      43  41  93 CALM      29.95R
DALTON         CLEAR     37  37 100 CALM      30.03R
GADSDEN        CLEAR     43  37  81 CALM      30.00R
GOLDEN TRNGL   CLEAR     54  43  66 SE6       29.95S
HALEYVILLE     FAIR      40  40 100 CALM      29.99R
JACKSON TN     PTCLDY    48  37  65 CALM      29.94R
LEWISBURG      FAIR      36  35  96 CALM      29.97S
MEMPHIS        PTCLDY    55  39  54 SE3       29.91S
MURFREESBORO   FAIR      42  37  82 CALM      29.99R
NASHVILLE      PTCLDY    43  39  86 CALM      29.98F
OXFORD MS      FAIR      54  39  58 CALM      29.95R
ROME           CLEAR     41  39  93 NE5       30.02R
SAVANNAH       CLEAR     39  39 100 CALM      29.95S
TUPELO         CLEAR     47  43  86 CALM      29.94R
TUSCALOOSA     PTCLDY    49  46  90 N3        29.96S
$$

...GULF COAST WEATHER...

CITY           SKY/WX    TMP DP  RH WIND       PRES   REMARKS
GULFPORT         N/A     63  59  87 CALM      29.92R
PASCAGOULA     FOG       59  59 100 CALM      29.94R VSB 1/4
MOBILE         FOG       63  63 100 CALM      29.95S VSB 1/4
GULF SHORES    CLOUDY    58  58 100 CALM      29.96R FOG
PENSACOLA      PTCLDY    63  63 100 CALM      29.94R
DESTIN         FOG       66  63  90 CALM      29.96  VSB 3/4
PANAMA CITY    CLOUDY    64  64 100 CALM      29.96R FOG
APPALACHICOLA  FOG       63  60  90 CALM      29.96R VSB 1/2
$$





U.S. Dept. of Commerce
NOAA National Weather Service
1325 East West Highway
Silver Spring, MD 20910
E-mail: w-nws.webmaster@noaa.gov
Page last modified: May 16, 2007
NATIONAL WEATHER SERVICE: for Safety, for Work, for Fun - FOR LIFE